Year,Month,Day,Hour,Minute,Value (Times are PST for windgust in km/hr)
2015,11,18,00,00,3.20
2015,11,18,00,01,4.80
2015,11,18,00,02,3.20
2015,11,18,00,03,1.60
2015,11,18,00,05,1.60
2015,11,18,00,06,1.60
2015,11,18,00,07,1.60
2015,11,18,00,08,1.60
2015,11,18,00,09,1.60
2015,11,18,00,10,1.60
2015,11,18,00,11,3.20
2015,11,18,00,12,3.20
2015,11,18,00,13,3.20
2015,11,18,00,14,3.20
2015,11,18,00,15,1.60
2015,11,18,00,16,3.20
2015,11,18,00,17,1.60
2015,11,18,00,18,3.20
2015,11,18,00,19,3.20
2015,11,18,00,20,6.40
2015,11,18,00,21,4.80
2015,11,18,00,22,3.20
2015,11,18,00,23,6.40
2015,11,18,00,24,4.80
2015,11,18,00,25,1.60
2015,11,18,00,26,4.80
2015,11,18,00,27,9.60
2015,11,18,00,28,4.80
2015,11,18,00,29,3.20
2015,11,18,00,30,6.40
2015,11,18,00,31,4.80
2015,11,18,00,32,3.20
2015,11,18,00,33,4.80
2015,11,18,00,34,8.10
2015,11,18,00,35,4.80
2015,11,18,00,36,11.30
2015,11,18,00,37,6.40
2015,11,18,00,38,4.80
2015,11,18,00,39,3.20
2015,11,18,00,40,6.40
2015,11,18,00,41,3.20
2015,11,18,00,42,3.20
2015,11,18,00,43,6.40
2015,11,18,00,44,8.10
2015,11,18,00,45,4.80
2015,11,18,00,46,4.80
2015,11,18,00,47,4.80
2015,11,18,00,48,4.80
2015,11,18,00,49,3.20
2015,11,18,00,50,3.20
2015,11,18,00,51,1.60
2015,11,18,00,52,6.40
2015,11,18,00,53,9.60
2015,11,18,00,54,11.30
2015,11,18,00,55,11.30
2015,11,18,00,56,14.50
2015,11,18,00,57,9.60
2015,11,18,00,58,6.40
2015,11,18,00,59,4.80
2015,11,18,01,00,9.60
2015,11,18,01,01,8.10
2015,11,18,01,02,6.40
2015,11,18,01,03,4.80
2015,11,18,01,04,6.40
2015,11,18,01,05,4.80
2015,11,18,01,06,6.40
2015,11,18,01,07,12.90
2015,11,18,01,08,9.60
2015,11,18,01,09,6.40
2015,11,18,01,10,6.40
2015,11,18,01,11,4.80
2015,11,18,01,12,6.40
2015,11,18,01,13,3.20
2015,11,18,01,14,11.30
2015,11,18,01,15,8.10
2015,11,18,01,16,6.40
2015,11,18,01,17,6.40
2015,11,18,01,18,3.20
2015,11,18,01,19,1.60
2015,11,18,01,20,4.80
2015,11,18,01,21,4.80
2015,11,18,01,22,8.10
2015,11,18,01,23,8.10
2015,11,18,01,24,4.80
2015,11,18,01,25,8.10
2015,11,18,01,26,6.40
2015,11,18,01,27,4.80
2015,11,18,01,28,12.90
2015,11,18,01,29,8.10
2015,11,18,01,30,8.10
2015,11,18,01,31,4.80
2015,11,18,01,32,4.80
2015,11,18,01,33,6.40
2015,11,18,01,34,9.60
2015,11,18,01,35,8.10
2015,11,18,01,36,8.10
2015,11,18,01,37,4.80
2015,11,18,01,38,12.90
2015,11,18,01,39,9.60
2015,11,18,01,40,6.40
2015,11,18,01,41,8.10
2015,11,18,01,42,11.30
2015,11,18,01,43,9.60
2015,11,18,01,44,11.30
2015,11,18,01,45,9.60
2015,11,18,01,46,6.40
2015,11,18,01,47,8.10
2015,11,18,01,48,12.90
2015,11,18,01,49,9.60
2015,11,18,01,50,12.90
2015,11,18,01,51,20.90
2015,11,18,01,52,8.10
2015,11,18,01,53,12.90
2015,11,18,01,54,19.30
2015,11,18,01,55,20.90
2015,11,18,01,56,16.10
2015,11,18,01,57,16.10
2015,11,18,01,58,17.70
2015,11,18,01,59,17.70
2015,11,18,02,00,19.30
2015,11,18,02,01,8.10
2015,11,18,02,02,20.90
2015,11,18,02,03,14.50
2015,11,18,02,04,14.50
2015,11,18,02,05,12.90
2015,11,18,02,06,8.10
2015,11,18,02,07,16.10
2015,11,18,02,08,11.30
2015,11,18,02,09,17.70
2015,11,18,02,10,20.90
2015,11,18,02,11,9.60
2015,11,18,02,12,16.10
2015,11,18,02,13,12.90
2015,11,18,02,14,11.30
2015,11,18,02,15,14.50
2015,11,18,02,16,17.70
2015,11,18,02,17,17.70
2015,11,18,02,18,14.50
2015,11,18,02,19,27.40
2015,11,18,02,20,24.20
2015,11,18,02,21,22.50
2015,11,18,02,22,24.20
2015,11,18,02,23,24.20
2015,11,18,02,24,20.90
2015,11,18,02,25,14.50
2015,11,18,02,26,9.60
2015,11,18,02,27,11.30
2015,11,18,02,28,9.60
2015,11,18,02,29,11.30
2015,11,18,02,30,11.30
2015,11,18,02,31,12.90
2015,11,18,02,32,12.90
2015,11,18,02,33,9.60
2015,11,18,02,34,11.30
2015,11,18,02,35,20.90
2015,11,18,02,36,4.80
2015,11,18,02,37,9.60
2015,11,18,02,38,12.90
2015,11,18,02,39,12.90
2015,11,18,02,40,9.60
2015,11,18,02,41,9.60
2015,11,18,02,42,19.30
2015,11,18,02,43,24.20
2015,11,18,02,44,19.30
2015,11,18,02,45,14.50
2015,11,18,02,46,14.50
2015,11,18,02,47,12.90
2015,11,18,02,48,11.30
2015,11,18,02,49,17.70
2015,11,18,02,50,12.90
2015,11,18,02,51,14.50
2015,11,18,02,52,16.10
2015,11,18,02,53,11.30
2015,11,18,02,54,17.70
2015,11,18,02,55,19.30
2015,11,18,02,56,16.10
2015,11,18,02,57,19.30
2015,11,18,02,58,12.90
2015,11,18,02,59,14.50
2015,11,18,03,00,11.30
2015,11,18,03,01,9.60
2015,11,18,03,02,11.30
2015,11,18,03,03,16.10
2015,11,18,03,04,8.10
2015,11,18,03,05,19.30
2015,11,18,03,06,16.10
2015,11,18,03,07,11.30
2015,11,18,03,08,12.90
2015,11,18,03,09,8.10
2015,11,18,03,10,12.90
2015,11,18,03,11,19.30
2015,11,18,03,12,17.70
2015,11,18,03,13,11.30
2015,11,18,03,14,11.30
2015,11,18,03,15,16.10
2015,11,18,03,16,11.30
2015,11,18,03,17,19.30
2015,11,18,03,18,14.50
2015,11,18,03,19,11.30
2015,11,18,03,20,14.50
2015,11,18,03,21,14.50
2015,11,18,03,22,6.40
2015,11,18,03,23,6.40
2015,11,18,03,24,9.60
2015,11,18,03,25,9.60
2015,11,18,03,26,11.30
2015,11,18,03,27,9.60
2015,11,18,03,28,4.80
2015,11,18,03,29,8.10
2015,11,18,03,30,6.40
2015,11,18,03,31,11.30
2015,11,18,03,32,8.10
2015,11,18,03,33,12.90
2015,11,18,03,34,8.10
2015,11,18,03,35,11.30
2015,11,18,03,36,9.60
2015,11,18,03,37,14.50
2015,11,18,03,38,12.90
2015,11,18,03,39,14.50
2015,11,18,03,40,14.50
2015,11,18,03,41,12.90
2015,11,18,03,42,16.10
2015,11,18,03,43,11.30
2015,11,18,03,44,9.60
2015,11,18,03,45,6.40
2015,11,18,03,46,9.60
2015,11,18,03,47,12.90
2015,11,18,03,48,12.90
2015,11,18,03,49,9.60
2015,11,18,03,50,6.40
2015,11,18,03,51,6.40
2015,11,18,03,52,8.10
2015,11,18,03,53,6.40
2015,11,18,03,54,11.30
2015,11,18,03,55,14.50
2015,11,18,03,56,19.30
2015,11,18,03,57,12.90
2015,11,18,03,58,9.60
2015,11,18,03,59,6.40
2015,11,18,04,00,9.60
2015,11,18,04,01,11.30
2015,11,18,04,02,6.40
2015,11,18,04,03,6.40
2015,11,18,04,04,8.10
2015,11,18,04,05,9.60
2015,11,18,04,06,11.30
2015,11,18,04,07,6.40
2015,11,18,04,08,6.40
2015,11,18,04,09,8.10
2015,11,18,04,10,11.30
2015,11,18,04,11,6.40
2015,11,18,04,12,4.80
2015,11,18,04,13,3.20
2015,11,18,04,14,6.40
2015,11,18,04,15,9.60
2015,11,18,04,16,6.40
2015,11,18,04,17,8.10
2015,11,18,04,18,9.60
2015,11,18,04,19,8.10
2015,11,18,04,20,4.80
2015,11,18,04,21,3.20
2015,11,18,04,22,4.80
2015,11,18,04,23,4.80
2015,11,18,04,24,6.40
2015,11,18,04,25,6.40
2015,11,18,04,26,6.40
2015,11,18,04,27,6.40
2015,11,18,04,28,9.60
2015,11,18,04,29,8.10
2015,11,18,04,30,6.40
2015,11,18,04,31,4.80
2015,11,18,04,32,6.40
2015,11,18,04,33,8.10
2015,11,18,04,34,6.40
2015,11,18,04,35,4.80
2015,11,18,04,36,11.30
2015,11,18,04,37,8.10
2015,11,18,04,38,8.10
2015,11,18,04,39,11.30
2015,11,18,04,40,9.60
2015,11,18,04,41,11.30
2015,11,18,04,42,11.30
2015,11,18,04,43,9.60
2015,11,18,04,44,9.60
2015,11,18,04,45,11.30
2015,11,18,04,46,8.10
2015,11,18,04,47,4.80
2015,11,18,04,48,11.30
2015,11,18,04,49,12.90
2015,11,18,04,50,9.60
2015,11,18,04,51,14.50
2015,11,18,04,52,14.50
2015,11,18,04,53,12.90
2015,11,18,04,54,6.40
2015,11,18,04,55,4.80
2015,11,18,04,56,8.10
2015,11,18,04,57,9.60
2015,11,18,04,58,4.80
2015,11,18,04,59,9.60
2015,11,18,05,00,9.60
2015,11,18,05,01,14.50
2015,11,18,05,02,12.90
2015,11,18,05,03,8.10
2015,11,18,05,04,8.10
2015,11,18,05,05,6.40
2015,11,18,05,06,11.30
2015,11,18,05,07,6.40
2015,11,18,05,08,8.10
2015,11,18,05,09,16.10
2015,11,18,05,10,11.30
2015,11,18,05,11,9.60
2015,11,18,05,12,9.60
2015,11,18,05,13,6.40
2015,11,18,05,14,9.60
2015,11,18,05,15,6.40
2015,11,18,05,16,8.10
2015,11,18,05,17,4.80
2015,11,18,05,18,8.10
2015,11,18,05,19,6.40
2015,11,18,05,20,4.80
2015,11,18,05,21,8.10
2015,11,18,05,22,6.40
2015,11,18,05,23,6.40
2015,11,18,05,24,6.40
2015,11,18,05,25,8.10
2015,11,18,05,26,6.40
2015,11,18,05,27,6.40
2015,11,18,05,28,3.20
2015,11,18,05,29,4.80
2015,11,18,05,30,3.20
2015,11,18,05,31,3.20
2015,11,18,05,32,3.20
2015,11,18,05,33,1.60
2015,11,18,05,34,4.80
2015,11,18,05,35,3.20
2015,11,18,05,36,3.20
2015,11,18,05,37,3.20
2015,11,18,05,38,1.60
2015,11,18,05,39,6.40
2015,11,18,05,40,6.40
2015,11,18,05,41,3.20
2015,11,18,05,42,3.20
2015,11,18,05,43,3.20
2015,11,18,05,44,4.80
2015,11,18,05,45,4.80
2015,11,18,05,46,3.20
2015,11,18,05,47,3.20
2015,11,18,05,48,3.20
2015,11,18,05,49,3.20
2015,11,18,05,50,1.60
2015,11,18,05,51,3.20
2015,11,18,05,52,3.20
2015,11,18,05,53,3.20
2015,11,18,05,54,3.20
2015,11,18,05,55,1.60
2015,11,18,05,56,1.60
2015,11,18,05,58,1.60
2015,11,18,05,59,1.60
2015,11,18,06,01,1.60
2015,11,18,06,02,1.60
2015,11,18,06,03,1.60
2015,11,18,06,07,1.60
2015,11,18,06,08,3.20
2015,11,18,06,09,1.60
2015,11,18,06,26,1.60
2015,11,18,06,27,1.60
2015,11,18,06,28,1.60
2015,11,18,06,31,1.60
2015,11,18,06,32,1.60
2015,11,18,06,33,3.20
2015,11,18,06,34,1.60
2015,11,18,06,35,1.60
2015,11,18,06,43,1.60
2015,11,18,06,44,1.60
2015,11,18,06,45,1.60
2015,11,18,06,46,1.60
2015,11,18,06,47,1.60
2015,11,18,06,48,1.60
2015,11,18,06,49,1.60
2015,11,18,06,50,1.60
2015,11,18,06,51,1.60
2015,11,18,06,52,1.60
2015,11,18,06,53,1.60
2015,11,18,06,54,1.60
2015,11,18,06,55,1.60
2015,11,18,06,56,1.60
2015,11,18,07,06,1.60
2015,11,18,07,07,1.60
2015,11,18,07,08,1.60
2015,11,18,07,09,1.60
2015,11,18,07,10,3.20
2015,11,18,07,11,1.60
2015,11,18,07,13,3.20
2015,11,18,07,20,1.60
2015,11,18,07,21,3.20
2015,11,18,07,22,3.20
2015,11,18,07,23,3.20
2015,11,18,07,24,1.60
2015,11,18,07,25,1.60
2015,11,18,07,26,1.60
2015,11,18,07,27,1.60
2015,11,18,07,28,1.60
2015,11,18,07,29,3.20
2015,11,18,07,30,1.60
2015,11,18,07,31,1.60
2015,11,18,07,34,1.60
2015,11,18,07,35,3.20
2015,11,18,07,36,1.60
2015,11,18,07,37,1.60
2015,11,18,07,38,1.60
2015,11,18,07,39,1.60
2015,11,18,07,40,1.60
2015,11,18,07,41,1.60
2015,11,18,07,54,1.60
2015,11,18,07,55,1.60
2015,11,18,07,56,1.60
2015,11,18,07,57,3.20
2015,11,18,07,58,1.60
2015,11,18,07,59,1.60
2015,11,18,08,00,3.20
2015,11,18,08,01,1.60
2015,11,18,08,02,1.60
2015,11,18,08,03,1.60
2015,11,18,08,04,1.60
2015,11,18,08,05,1.60
2015,11,18,08,06,1.60
2015,11,18,08,07,3.20
2015,11,18,08,08,1.60
2015,11,18,08,09,3.20
2015,11,18,08,10,1.60
2015,11,18,08,11,1.60
2015,11,18,08,12,3.20
2015,11,18,08,13,3.20
2015,11,18,08,14,1.60
2015,11,18,08,23,1.60
2015,11,18,08,25,1.60
2015,11,18,08,35,1.60
2015,11,18,08,36,1.60
2015,11,18,08,37,3.20
2015,11,18,08,38,1.60
2015,11,18,08,39,1.60
2015,11,18,08,40,3.20
2015,11,18,08,41,3.20
2015,11,18,08,42,1.60
2015,11,18,08,43,3.20
2015,11,18,08,44,1.60
2015,11,18,08,45,1.60
2015,11,18,08,46,1.60
2015,11,18,08,47,1.60
2015,11,18,08,48,3.20
2015,11,18,08,49,3.20
2015,11,18,08,50,1.60
2015,11,18,08,51,1.60
2015,11,18,08,58,1.60
2015,11,18,09,01,1.60
2015,11,18,09,04,1.60
2015,11,18,09,05,3.20
2015,11,18,09,06,4.80
2015,11,18,09,07,3.20
2015,11,18,09,08,3.20
2015,11,18,09,09,3.20
2015,11,18,09,10,1.60
2015,11,18,09,11,1.60
2015,11,18,09,12,1.60
2015,11,18,09,16,1.60
2015,11,18,09,17,1.60
2015,11,18,09,18,3.20
2015,11,18,09,19,1.60
2015,11,18,09,20,1.60
2015,11,18,09,23,1.60
2015,11,18,09,24,1.60
2015,11,18,09,25,1.60
2015,11,18,09,28,1.60
2015,11,18,09,29,1.60
2015,11,18,09,30,1.60
2015,11,18,09,32,1.60
2015,11,18,09,33,1.60
2015,11,18,09,34,1.60
2015,11,18,09,39,1.60
2015,11,18,09,44,1.60
2015,11,18,09,45,1.60
2015,11,18,09,46,1.60
2015,11,18,09,57,3.20
2015,11,18,09,58,1.60
2015,11,18,10,00,1.60
2015,11,18,10,01,1.60
2015,11,18,10,02,1.60
2015,11,18,10,03,3.20
2015,11,18,10,04,1.60
2015,11,18,10,05,1.60
2015,11,18,10,06,3.20
2015,11,18,10,07,1.60
2015,11,18,10,08,1.60
2015,11,18,10,09,3.20
2015,11,18,10,10,3.20
2015,11,18,10,11,3.20
2015,11,18,10,12,1.60
2015,11,18,10,13,3.20
2015,11,18,10,14,1.60
2015,11,18,10,15,1.60
2015,11,18,10,16,1.60
2015,11,18,10,17,1.60
2015,11,18,10,18,1.60
2015,11,18,10,19,1.60
2015,11,18,10,20,3.20
2015,11,18,10,21,1.60
2015,11,18,10,22,1.60
2015,11,18,10,24,1.60
2015,11,18,10,25,1.60
2015,11,18,10,26,3.20
2015,11,18,10,27,3.20
2015,11,18,10,28,3.20
2015,11,18,10,29,3.20
2015,11,18,10,30,1.60
2015,11,18,10,31,1.60
2015,11,18,10,32,1.60
2015,11,18,10,33,1.60
2015,11,18,10,35,1.60
2015,11,18,10,36,3.20
2015,11,18,10,37,3.20
2015,11,18,10,38,3.20
2015,11,18,10,39,3.20
2015,11,18,10,40,3.20
2015,11,18,10,41,3.20
2015,11,18,10,42,3.20
2015,11,18,10,43,3.20
2015,11,18,10,44,3.20
2015,11,18,10,45,1.60
2015,11,18,10,46,1.60
2015,11,18,10,47,1.60
2015,11,18,10,48,1.60
2015,11,18,10,49,1.60
2015,11,18,10,50,3.20
2015,11,18,10,51,3.20
2015,11,18,10,52,4.80
2015,11,18,10,53,3.20
2015,11,18,10,54,3.20
2015,11,18,10,55,3.20
2015,11,18,10,56,3.20
2015,11,18,10,57,3.20
2015,11,18,10,58,3.20
2015,11,18,10,59,1.60
2015,11,18,11,00,1.60
2015,11,18,11,01,1.60
2015,11,18,11,02,3.20
2015,11,18,11,03,1.60
2015,11,18,11,06,1.60
2015,11,18,11,07,1.60
2015,11,18,11,08,3.20
2015,11,18,11,09,1.60
2015,11,18,11,10,1.60
2015,11,18,11,11,4.80
2015,11,18,11,12,3.20
2015,11,18,11,13,3.20
2015,11,18,11,14,3.20
2015,11,18,11,15,3.20
2015,11,18,11,16,3.20
2015,11,18,11,17,1.60
2015,11,18,11,18,1.60
2015,11,18,11,20,3.20
2015,11,18,11,21,3.20
2015,11,18,11,22,1.60
2015,11,18,11,24,3.20
2015,11,18,11,25,3.20
2015,11,18,11,26,1.60
2015,11,18,11,27,3.20
2015,11,18,11,28,1.60
2015,11,18,11,29,1.60
2015,11,18,11,30,1.60
2015,11,18,11,31,3.20
2015,11,18,11,32,3.20
2015,11,18,11,33,3.20
2015,11,18,11,34,1.60
2015,11,18,11,35,3.20
2015,11,18,11,36,3.20
2015,11,18,11,37,3.20
2015,11,18,11,38,3.20
2015,11,18,11,39,4.80
2015,11,18,11,40,3.20
2015,11,18,11,41,3.20
2015,11,18,11,42,1.60
2015,11,18,11,43,3.20
2015,11,18,11,44,3.20
2015,11,18,11,45,1.60
2015,11,18,11,46,3.20
2015,11,18,11,47,3.20
2015,11,18,11,48,3.20
2015,11,18,11,49,1.60
2015,11,18,11,50,1.60
2015,11,18,11,51,3.20
2015,11,18,11,52,3.20
2015,11,18,11,53,3.20
2015,11,18,11,54,1.60
2015,11,18,11,55,1.60
2015,11,18,11,56,3.20
2015,11,18,11,57,3.20
2015,11,18,11,58,3.20
2015,11,18,11,59,3.20
2015,11,18,12,00,3.20
2015,11,18,12,01,3.20
2015,11,18,12,02,3.20
2015,11,18,12,03,3.20
2015,11,18,12,04,1.60
2015,11,18,12,05,1.60
2015,11,18,12,07,1.60
2015,11,18,12,08,1.60
2015,11,18,12,09,1.60
2015,11,18,12,10,1.60
2015,11,18,12,11,1.60
2015,11,18,12,12,1.60
2015,11,18,12,13,1.60
2015,11,18,12,14,1.60
2015,11,18,12,16,3.20
2015,11,18,12,17,3.20
2015,11,18,12,18,1.60
2015,11,18,12,22,1.60
2015,11,18,12,23,1.60
2015,11,18,12,24,1.60
2015,11,18,12,25,1.60
2015,11,18,12,26,1.60
2015,11,18,12,27,3.20
2015,11,18,12,28,3.20
2015,11,18,12,29,3.20
2015,11,18,12,30,3.20
2015,11,18,12,31,1.60
2015,11,18,12,32,3.20
2015,11,18,12,33,1.60
2015,11,18,12,36,1.60
2015,11,18,12,37,1.60
2015,11,18,12,38,3.20
2015,11,18,12,39,3.20
2015,11,18,12,40,1.60
2015,11,18,12,41,1.60
2015,11,18,12,42,3.20
2015,11,18,12,43,1.60
2015,11,18,12,44,1.60
2015,11,18,12,45,1.60
2015,11,18,12,46,3.20
2015,11,18,12,47,1.60
2015,11,18,12,48,3.20
2015,11,18,12,49,3.20
2015,11,18,12,50,4.80
2015,11,18,12,51,8.10
2015,11,18,12,52,4.80
2015,11,18,12,53,3.20
2015,11,18,12,55,1.60
2015,11,18,12,56,4.80
2015,11,18,12,57,3.20
2015,11,18,12,58,4.80
2015,11,18,12,59,4.80
2015,11,18,13,00,3.20
2015,11,18,13,01,4.80
2015,11,18,13,02,3.20
2015,11,18,13,03,3.20
2015,11,18,13,04,4.80
2015,11,18,13,05,3.20
2015,11,18,13,06,1.60
2015,11,18,13,07,1.60
2015,11,18,13,08,3.20
2015,11,18,13,09,3.20
2015,11,18,13,10,3.20
2015,11,18,13,11,3.20
2015,11,18,13,12,1.60
2015,11,18,13,13,1.60
2015,11,18,13,15,1.60
2015,11,18,13,16,1.60
2015,11,18,13,17,3.20
2015,11,18,13,18,3.20
2015,11,18,13,19,1.60
2015,11,18,13,20,3.20
2015,11,18,13,21,3.20
2015,11,18,13,22,3.20
2015,11,18,13,23,3.20
2015,11,18,13,24,4.80
2015,11,18,13,25,4.80
2015,11,18,13,26,4.80
2015,11,18,13,27,3.20
2015,11,18,13,28,3.20
2015,11,18,13,29,3.20
2015,11,18,13,30,1.60
2015,11,18,13,31,4.80
2015,11,18,13,32,1.60
2015,11,18,13,33,1.60
2015,11,18,13,34,4.80
2015,11,18,13,35,3.20
2015,11,18,13,36,3.20
2015,11,18,13,37,3.20
2015,11,18,13,38,3.20
2015,11,18,13,39,1.60
2015,11,18,13,41,1.60
2015,11,18,13,43,1.60
2015,11,18,13,44,1.60
2015,11,18,13,45,1.60
2015,11,18,13,46,3.20
2015,11,18,13,47,3.20
2015,11,18,13,48,4.80
2015,11,18,13,49,3.20
2015,11,18,13,50,3.20
2015,11,18,13,51,4.80
2015,11,18,13,52,4.80
2015,11,18,13,53,3.20
2015,11,18,13,54,3.20
2015,11,18,13,55,4.80
2015,11,18,13,56,3.20
2015,11,18,13,57,1.60
2015,11,18,13,58,3.20
2015,11,18,13,59,3.20
2015,11,18,14,00,3.20
2015,11,18,14,01,3.20
2015,11,18,14,02,3.20
2015,11,18,14,03,3.20
2015,11,18,14,04,1.60
2015,11,18,14,05,4.80
2015,11,18,14,06,6.40
2015,11,18,14,07,8.10
2015,11,18,14,08,8.10
2015,11,18,14,09,6.40
2015,11,18,14,10,3.20
2015,11,18,14,11,3.20
2015,11,18,14,12,3.20
2015,11,18,14,13,4.80
2015,11,18,14,14,6.40
2015,11,18,14,15,6.40
2015,11,18,14,16,4.80
2015,11,18,14,17,6.40
2015,11,18,14,18,6.40
2015,11,18,14,19,6.40
2015,11,18,14,20,6.40
2015,11,18,14,21,3.20
2015,11,18,14,22,3.20
2015,11,18,14,23,3.20
2015,11,18,14,24,1.60
2015,11,18,14,25,1.60
2015,11,18,14,26,1.60
2015,11,18,14,27,3.20
2015,11,18,14,28,3.20
2015,11,18,14,29,1.60
2015,11,18,14,30,3.20
2015,11,18,14,31,3.20
2015,11,18,14,32,3.20
2015,11,18,14,33,3.20
2015,11,18,14,34,1.60
2015,11,18,14,35,4.80
2015,11,18,14,36,6.40
2015,11,18,14,37,6.40
2015,11,18,14,38,4.80
2015,11,18,14,39,8.10
2015,11,18,14,40,6.40
2015,11,18,14,41,4.80
2015,11,18,14,42,3.20
2015,11,18,14,43,3.20
2015,11,18,14,44,1.60
2015,11,18,14,46,1.60
2015,11,18,14,47,3.20
2015,11,18,14,48,1.60
2015,11,18,14,49,1.60
2015,11,18,14,50,1.60
2015,11,18,14,51,1.60
2015,11,18,14,52,1.60
2015,11,18,14,53,1.60
2015,11,18,14,54,3.20
2015,11,18,14,55,4.80
2015,11,18,14,56,6.40
2015,11,18,14,57,4.80
2015,11,18,14,58,3.20
2015,11,18,14,59,4.80
2015,11,18,15,00,3.20
2015,11,18,15,01,3.20
2015,11,18,15,02,1.60
2015,11,18,15,03,3.20
2015,11,18,15,04,1.60
2015,11,18,15,05,3.20
2015,11,18,15,06,3.20
2015,11,18,15,07,3.20
2015,11,18,15,08,1.60
2015,11,18,15,09,1.60
2015,11,18,15,10,1.60
2015,11,18,15,11,3.20
2015,11,18,15,12,3.20
2015,11,18,15,13,1.60
2015,11,18,15,14,3.20
2015,11,18,15,15,1.60
2015,11,18,15,16,1.60
2015,11,18,15,17,1.60
2015,11,18,15,18,1.60
2015,11,18,15,19,1.60
2015,11,18,15,20,1.60
2015,11,18,15,21,1.60
2015,11,18,15,22,3.20
2015,11,18,15,23,3.20
2015,11,18,15,24,1.60
2015,11,18,15,25,1.60
2015,11,18,15,26,3.20
2015,11,18,15,27,4.80
2015,11,18,15,28,3.20
2015,11,18,15,29,4.80
2015,11,18,15,30,3.20
2015,11,18,15,31,3.20
2015,11,18,15,32,3.20
2015,11,18,15,33,3.20
2015,11,18,15,34,4.80
2015,11,18,15,35,3.20
2015,11,18,15,36,1.60
2015,11,18,15,37,1.60
2015,11,18,15,43,1.60
2015,11,18,15,44,1.60
2015,11,18,15,45,1.60
2015,11,18,15,46,3.20
2015,11,18,15,47,1.60
2015,11,18,15,49,1.60
2015,11,18,15,50,1.60
2015,11,18,15,51,4.80
2015,11,18,15,52,3.20
2015,11,18,15,53,3.20
2015,11,18,15,55,1.60
2015,11,18,15,56,1.60
2015,11,18,15,57,1.60
2015,11,18,16,00,1.60
2015,11,18,16,04,1.60
2015,11,18,16,09,1.60
2015,11,18,16,24,1.60
2015,11,18,16,26,1.60
2015,11,18,16,27,1.60
2015,11,18,16,28,1.60
2015,11,18,16,29,1.60
2015,11,18,16,31,1.60
2015,11,18,16,32,1.60
2015,11,18,16,36,1.60
2015,11,18,16,50,1.60
2015,11,18,16,51,1.60
2015,11,18,17,05,1.60
2015,11,18,17,09,1.60
2015,11,18,17,10,1.60
2015,11,18,17,13,1.60
2015,11,18,17,14,1.60
2015,11,18,17,16,1.60
2015,11,18,17,17,3.20
2015,11,18,17,18,1.60
2015,11,18,17,19,1.60
2015,11,18,17,20,3.20
2015,11,18,17,21,3.20
2015,11,18,17,22,1.60
2015,11,18,17,26,1.60
2015,11,18,17,28,3.20
2015,11,18,17,29,1.60
2015,11,18,17,30,1.60
2015,11,18,17,31,1.60
2015,11,18,17,33,1.60
2015,11,18,17,34,1.60
2015,11,18,17,35,1.60
2015,11,18,17,36,1.60
2015,11,18,17,45,1.60
2015,11,18,17,46,1.60
2015,11,18,17,49,1.60
2015,11,18,17,50,1.60
2015,11,18,17,51,1.60
2015,11,18,17,52,1.60
2015,11,18,17,53,1.60
2015,11,18,17,54,1.60
2015,11,18,17,55,1.60
2015,11,18,17,56,1.60
2015,11,18,18,00,1.60
2015,11,18,18,01,1.60
2015,11,18,18,02,1.60
2015,11,18,18,07,1.60
2015,11,18,18,08,3.20
2015,11,18,18,09,3.20
2015,11,18,18,10,1.60
2015,11,18,18,11,1.60
2015,11,18,18,12,1.60
2015,11,18,18,13,1.60
2015,11,18,18,14,1.60
2015,11,18,18,15,1.60
2015,11,18,18,16,1.60
2015,11,18,18,17,1.60
2015,11,18,18,18,1.60
2015,11,18,18,26,1.60
2015,11,18,18,33,1.60
2015,11,18,18,34,1.60
2015,11,18,18,35,3.20
2015,11,18,18,36,1.60
2015,11,18,18,37,1.60
2015,11,18,18,39,3.20
2015,11,18,18,40,3.20
2015,11,18,18,41,1.60
2015,11,18,18,42,1.60
2015,11,18,18,43,1.60
2015,11,18,18,44,1.60
2015,11,18,18,48,1.60
2015,11,18,18,49,1.60
2015,11,18,18,50,1.60
2015,11,18,18,51,4.80
2015,11,18,18,52,3.20
2015,11,18,18,53,1.60
2015,11,18,18,55,1.60
2015,11,18,18,56,3.20
2015,11,18,18,57,4.80
2015,11,18,18,58,3.20
2015,11,18,18,59,4.80
2015,11,18,19,00,3.20
2015,11,18,19,01,3.20
2015,11,18,19,02,3.20
2015,11,18,19,03,1.60
2015,11,18,19,08,4.80
2015,11,18,19,09,3.20
2015,11,18,19,10,3.20
2015,11,18,19,11,1.60
2015,11,18,19,13,1.60
2015,11,18,19,15,1.60
2015,11,18,19,17,3.20
2015,11,18,19,18,3.20
2015,11,18,19,19,3.20
2015,11,18,19,22,6.40
2015,11,18,19,23,3.20
2015,11,18,19,24,3.20
2015,11,18,19,25,3.20
2015,11,18,19,26,1.60
2015,11,18,19,27,3.20
2015,11,18,19,28,4.80
2015,11,18,19,29,3.20
2015,11,18,19,30,3.20
2015,11,18,19,31,3.20
2015,11,18,19,32,1.60
2015,11,18,19,33,1.60
2015,11,18,19,34,1.60
2015,11,18,19,35,1.60
2015,11,18,19,36,3.20
2015,11,18,19,37,3.20
2015,11,18,19,38,1.60
2015,11,18,19,39,1.60
2015,11,18,19,40,1.60
2015,11,18,19,41,3.20
2015,11,18,19,42,1.60
2015,11,18,19,45,1.60
2015,11,18,19,46,1.60
2015,11,18,19,47,3.20
2015,11,18,19,48,3.20
2015,11,18,19,49,1.60
2015,11,18,19,50,1.60
2015,11,18,19,51,3.20
2015,11,18,19,52,1.60
2015,11,18,19,53,1.60
2015,11,18,19,59,1.60
2015,11,18,20,00,1.60
2015,11,18,20,01,1.60
2015,11,18,20,02,3.20
2015,11,18,20,03,3.20
2015,11,18,20,04,1.60
2015,11,18,20,05,1.60
2015,11,18,20,06,1.60
2015,11,18,20,07,3.20
2015,11,18,20,08,3.20
2015,11,18,20,09,3.20
2015,11,18,20,10,3.20
2015,11,18,20,11,1.60
2015,11,18,20,12,3.20
2015,11,18,20,13,3.20
2015,11,18,20,14,1.60
2015,11,18,20,15,3.20
2015,11,18,20,16,3.20
2015,11,18,20,17,1.60
2015,11,18,20,18,3.20
2015,11,18,20,19,3.20
2015,11,18,20,20,3.20
2015,11,18,20,21,4.80
2015,11,18,20,22,3.20
2015,11,18,20,23,1.60
2015,11,18,20,24,1.60
2015,11,18,20,25,1.60
2015,11,18,20,27,6.40
2015,11,18,20,28,1.60
2015,11,18,20,29,1.60
2015,11,18,20,30,1.60
2015,11,18,20,31,3.20
2015,11,18,20,32,3.20
2015,11,18,20,33,1.60
2015,11,18,20,34,3.20
2015,11,18,20,35,1.60
2015,11,18,20,36,1.60
2015,11,18,20,37,1.60
2015,11,18,20,38,1.60
2015,11,18,20,39,1.60
2015,11,18,20,43,1.60
2015,11,18,20,44,1.60
2015,11,18,20,45,1.60
2015,11,18,20,46,1.60
2015,11,18,20,47,1.60
2015,11,18,20,48,1.60
2015,11,18,20,49,3.20
2015,11,18,20,50,3.20
2015,11,18,20,51,1.60
2015,11,18,20,52,1.60
2015,11,18,20,53,1.60
2015,11,18,20,55,1.60
2015,11,18,20,58,1.60
2015,11,18,20,59,1.60
2015,11,18,21,00,1.60
2015,11,18,21,01,1.60
2015,11,18,21,02,1.60
2015,11,18,21,03,1.60
2015,11,18,21,04,1.60
2015,11,18,21,06,1.60
2015,11,18,21,07,1.60
2015,11,18,21,09,1.60
2015,11,18,21,10,1.60
2015,11,18,21,11,1.60
2015,11,18,21,12,1.60
2015,11,18,21,13,3.20
2015,11,18,21,14,1.60
2015,11,18,21,15,3.20
2015,11,18,21,16,1.60
2015,11,18,21,17,4.80
2015,11,18,21,18,3.20
2015,11,18,21,22,1.60
2015,11,18,21,23,1.60
2015,11,18,21,28,1.60
2015,11,18,21,29,1.60
2015,11,18,21,30,1.60
2015,11,18,21,31,3.20
2015,11,18,21,32,3.20
2015,11,18,21,33,3.20
2015,11,18,21,34,3.20
2015,11,18,21,35,3.20
2015,11,18,21,36,3.20
2015,11,18,21,37,4.80
2015,11,18,21,38,3.20
2015,11,18,21,39,1.60
2015,11,18,21,41,1.60
2015,11,18,21,42,3.20
2015,11,18,21,43,3.20
2015,11,18,21,44,1.60
2015,11,18,21,45,3.20
2015,11,18,21,46,3.20
2015,11,18,21,47,1.60
2015,11,18,21,48,1.60
2015,11,18,21,49,1.60
2015,11,18,21,50,1.60
2015,11,18,21,51,1.60
2015,11,18,21,55,1.60
2015,11,18,21,56,1.60
2015,11,18,21,57,1.60
2015,11,18,21,58,1.60
2015,11,18,21,59,1.60
2015,11,18,22,00,1.60
2015,11,18,22,01,1.60
2015,11,18,22,02,1.60
2015,11,18,22,03,1.60
2015,11,18,22,04,3.20
2015,11,18,22,05,1.60
2015,11,18,22,06,1.60
2015,11,18,22,07,1.60
2015,11,18,22,08,1.60
2015,11,18,22,09,1.60
2015,11,18,22,10,1.60
2015,11,18,22,12,1.60
2015,11,18,22,13,3.20
2015,11,18,22,14,3.20
2015,11,18,22,15,1.60
2015,11,18,22,16,1.60
2015,11,18,22,17,1.60
2015,11,18,22,18,4.80
2015,11,18,22,19,3.20
2015,11,18,22,20,1.60
2015,11,18,22,21,1.60
2015,11,18,22,22,1.60
2015,11,18,22,23,3.20
2015,11,18,22,24,4.80
2015,11,18,22,25,4.80
2015,11,18,22,26,3.20
2015,11,18,22,27,3.20
2015,11,18,22,28,3.20
2015,11,18,22,29,3.20
2015,11,18,22,30,1.60
2015,11,18,22,31,1.60
2015,11,18,22,33,1.60
2015,11,18,22,34,1.60
2015,11,18,22,35,1.60
2015,11,18,22,38,1.60
2015,11,18,22,39,1.60
2015,11,18,22,40,1.60
2015,11,18,22,41,1.60
2015,11,18,22,44,1.60